Theta_e
342 337 337 336 336 336 336 336 336 336 337 337 338 332 339 339 340 340 338 338 335 336 336 335 336 336 337 338 337 334 335 335 335 336 336 337 337 338 340 341 340 340 341
342 340 335 336 336 336 336 335 336 334 335 337 338 338 339 336 338 341 340 338 338 337 335 335 335 336 333 329 333 334 335 338 338 339 338 335 336 338 340 341 339 337 339
340 339 336 334 335 335 335 335 336 335 333 333 338 338 337 336 339 340 338 337 336 336 335 336 336 333 329 322 325 331 335 337 336 338 338 336 335 336 338 337 336 337 337
338 339 337 333 333 334 334 334 334 335 334 334 335 334 336 331 332 335 338 338 336 336 336 334 329 328 328 327 323 323 332 333 335 337 338 337 334 335 335 336 336 336 336
338 338 335 333 333 334 335 335 335 336 335 335 335 334 334 334 338 339 339 333 331 328 328 330 329 328 327 328 328 323 328 332 333 333 337 337 333 334 336 335 336 336 336
338 336 333 333 334 333 334 334 334 334 334 335 335 335 334 335 334 338 338 329 321 321 324 325 326 327 327 327 326 327 331 330 331 332 332 335 332 333 336 336 336 336 335
332 335 332 332 332 332 332 330 330 331 333 334 334 333 332 334 333 334 336 326 323 320 319 320 323 325 326 327 326 324 329 329 329 332 332 332 330 328 333 333 334 335 334
333 334 329 325 327 327 330 331 332 333 334 333 333 334 332 332 332 330 327 326 326 325 324 323 321 319 319 323 326 324 320 324 327 329 329 328 331 336 329 331 332 333 334
335 333 333 332 329 330 326 329 332 333 333 333 333 333 332 329 328 330 330 330 332 331 329 328 326 324 323 320 317 320 321 325 325 326 329 326 326 337 335 326 326 328 329
335 333 332 330 332 333 328 330 332 332 332 331 331 330 327 328 329 329 330 331 331 332 332 332 331 329 328 326 325 322 317 322 325 328 327 324 323 334 335 334 328 326 326
335 333 333 331 332 332 332 326 329 331 331 330 329 329 329 329 329 330 329 330 330 331 331 331 331 330 330 331 330 329 326 328 331 326 328 324 323 326 324 333 334 334 333
334 333 332 330 330 331 331 331 329 328 328 329 328 328 328 329 329 329 328 330 328 329 331 330 330 330 330 330 331 330 329 331 331 327 327 326 324 332 327 320 324 331 333
333 332 332 331 330 330 329 332 331 330 329 328 328 327 327 327 327 328 327 328 329 329 330 330 330 330 329 330 331 331 330 330 330 330 331 330 324 325 333 330 325 319 323
331 329 328 327 328 329 328 329 329 329 328 328 327 327 328 328 328 328 329 328 328 329 329 329 328 329 328 329 329 328 328 327 327 330 330 330 329 326 326 332 329 328 322
331 328 326 324 326 325 326 326 327 327 326 325 326 327 328 329 329 328 328 328 327 327 326 326 325 324 322 322 319 319 321 323 323 324 324 325 324 328 328 328 330 327 327
328 327 324 323 323 322 323 323 322 323 323 322 323 326 326 326 327 328 327 326 325 325 324 322 322 322 321 320 319 319 316 314 314 316 319 320 321 323 329 328 328 327 328
326 324 321 321 320 320 320 319 319 318 318 317 318 320 322 324 324 324 323 323 321 321 322 321 320 318 318 316 315 315 314 312 312 311 313 314 316 319 320 327 329 328 328
323 321 318 318 318 317 316 316 315 316 316 315 315 314 314 316 316 317 317 317 316 316 315 315 315 315 315 315 314 314 314 314 313 313 312 312 315 318 319 319 318 318 322
321 319 317 316 317 316 315 315 314 313 313 313 313 313 313 313 313 313 313 312 311 311 310 313 314 314 314 314 314 311 312 312 312 313 314 313 311 315 317 317 317 316 316
320 318 317 315 316 316 315 314 313 312 312 311 311 311 311 311 312 313 313 312 312 312 311 311 311 309 311 310 309 312 313 313 315 316 316 316 313 313 315 317 317 317 317
318 316 316 315 315 315 314 313 312 311 311 310 310 309 309 309 310 311 311 311 311 311 310 310 311 311 309 309 312 313 313 314 314 313 314 316 316 315 315 315 314 314 315
317 316 315 315 315 314 313 313 312 311 310 309 308 308 308 308 308 309 309 309 310 309 309 309 310 310 309 309 311 311 311 313 313 313 313 314 312 311 311 312 312 312 312
316 315 315 314 314 314 313 313 312 310 310 309 308 307 307 306 307 308 308 308 308 308 308 308 308 309 309 307 309 310 308 309 307 311 311 310 309 309 309 308 309 310 310
316 316 315 314 314 313 313 312 312 311 310 308 307 307 306 305 305 306 307 307 307 307 307 306 307 307 307 307 307 307 307 308 307 308 310 306 306 306 306 307 307 307 309
317 316 315 314 313 313 313 312 312 310 308 308 308 308 305 305 304 304 304 304 305 306 305 305 305 306 307 306 306 306 307 306 305 305 305 304 304 304 304 305 307 307 308
316 316 315 314 313 313 312 312 310 309 310 309 308 307 306 305 304 304 304 304 304 304 303 303 303 305 305 305 305 305 305 304 303 303 301 300 300 302 302 304 305 306 309
Wind_Speed
2 3 3 4 4 5 5 5 5 5 6 7 7 6 8 7 8 9 10 10 11 11 11 11 11 11 11 11 12 13 14 14 14 13 12 12 12 11 11 9 9 11 15
3 3 3 4 5 5 6 6 6 6 5 6 7 9 8 7 8 8 8 7 9 10 10 10 10 10 9 10 11 12 14 15 15 14 14 10 10 10 9 9 10 10 14
6 4 4 4 4 5 5 6 7 6 6 7 8 7 8 8 8 8 7 9 9 9 9 9 9 10 9 9 9 11 12 12 11 12 9 10 9 9 9 10 10 11 12
6 6 6 4 4 4 5 6 7 8 9 9 9 9 7 7 8 7 8 9 9 8 8 7 8 9 9 9 9 10 10 11 9 12 12 9 9 8 9 10 11 12 11
5 3 4 3 4 4 4 4 4 5 6 7 8 9 10 8 9 10 9 8 7 7 7 6 6 7 8 9 9 8 9 10 9 8 8 9 8 7 8 9 10 11 12
6 5 4 5 5 4 4 5 6 5 4 5 6 7 8 7 8 10 8 6 6 6 6 5 4 5 6 6 7 7 8 10 10 8 5 6 6 7 7 9 8 11 11
2 2 3 4 4 3 3 3 4 4 4 6 7 8 8 8 7 7 7 5 5 7 6 4 3 3 3 4 4 5 6 9 10 7 4 2 3 5 7 8 9 10 10
3 3 5 5 5 4 3 2 3 3 4 5 5 7 8 7 7 6 5 5 4 5 5 3 2 2 2 1 1 2 3 4 4 4 2 3 4 5 5 6 8 9 9
5 3 3 1 0 2 1 1 1 2 3 5 6 7 8 7 6 6 4 4 4 3 3 2 0 1 1 1 1 0 2 3 6 4 2 3 4 5 4 5 6 7 7
8 7 3 5 3 4 2 1 1 2 3 4 6 7 7 8 8 9 7 5 3 4 3 2 2 2 3 2 3 2 1 2 2 3 2 2 4 5 4 5 5 5 6
7 4 1 4 7 3 2 1 2 4 4 4 5 7 8 7 7 6 6 4 2 3 3 2 3 4 5 4 4 3 2 1 6 6 4 2 3 3 4 4 5 5 5
9 8 4 5 3 2 1 2 3 3 3 3 4 4 4 4 4 5 6 5 6 5 5 3 4 2 5 5 6 4 4 3 2 7 5 2 1 3 1 2 4 5 7
5 11 8 6 4 4 0 4 2 1 2 4 4 5 7 8 7 6 5 5 7 9 9 8 5 1 5 3 6 2 1 2 0 4 2 2 2 4 4 3 2 3 5
11 10 8 5 6 6 5 6 4 4 1 4 4 6 6 8 8 7 8 7 6 7 7 6 5 6 1 3 5 4 4 1 7 3 1 1 2 4 6 7 6 4 4
14 11 7 8 8 8 9 9 8 6 2 1 3 4 5 5 7 8 7 6 5 4 4 2 4 5 4 6 4 5 7 5 1 3 2 1 3 4 5 6 8 8 7
16 14 10 12 11 11 11 10 9 8 6 4 4 5 4 5 4 5 5 6 5 4 1 1 3 5 6 7 6 7 7 5 5 4 3 2 2 3 4 5 3 4 6
18 15 12 13 11 10 10 10 9 7 4 4 3 3 3 4 5 6 5 5 4 3 5 6 7 6 7 4 4 4 3 2 4 4 3 3 3 2 2 5 5 5 4
20 17 12 12 11 10 9 8 9 8 7 6 4 4 4 3 3 3 4 4 4 5 5 7 7 5 5 4 4 2 3 1 2 3 4 6 3 2 2 1 3 4 4
21 19 14 11 12 11 10 9 9 8 7 6 5 4 4 5 4 3 3 2 2 2 3 5 5 6 4 2 2 2 2 4 3 1 0 1 5 4 2 2 2 2 2
20 18 15 13 14 12 11 9 8 7 7 6 5 4 4 5 4 5 4 2 2 2 1 0 2 2 2 4 4 1 1 1 4 6 5 6 6 4 2 3 2 2 3
20 21 17 15 15 15 14 11 9 9 7 7 6 5 5 4 7 5 5 5 2 5 3 2 2 1 3 2 5 6 5 4 6 7 7 7 10 10 9 7 5 6 5
21 22 19 16 17 16 13 11 6 11 7 6 5 5 4 5 6 7 6 5 5 4 4 3 3 3 3 3 2 5 1 2 4 6 8 9 9 8 7 5 4 3 3
20 24 21 18 17 15 13 12 13 11 8 8 7 7 6 6 7 7 7 7 6 5 4 3 4 4 4 5 5 3 2 2 1 3 6 7 7 7 4 3 4 4 5
18 20 19 18 16 15 15 16 16 13 11 9 9 8 7 5 6 6 6 7 8 7 6 5 4 4 6 5 4 6 7 4 2 1 3 7 5 4 4 2 1 1 2
15 17 16 15 16 16 17 16 15 13 10 9 12 10 10 8 6 6 6 6 6 7 7 7 6 5 5 6 4 3 4 6 6 2 2 3 2 5 6 3 3 3 2
13 16 15 15 16 16 17 15 14 14 12 16 14 13 12 10 8 7 7 7 6 6 6 7 7 5 6 5 5 6 4 2 3 4 2 1 3 4 9 4 5 7 5
Wind_Direction
64 118 142 137 124 119 115 112 110 110 120 119 127 107 97 94 94 96 91 89 93 73 76 73 69 69 65 67 64 75 77 78 75 73 72 83 92 95 97 90 103 113 115
189 166 142 130 129 132 134 128 127 125 124 130 129 126 116 106 125 116 99 89 88 84 84 80 72 64 67 74 73 77 84 81 77 73 60 75 91 94 97 95 105 118 120
132 122 109 116 134 140 143 138 141 137 135 138 132 127 121 121 117 123 110 104 100 94 91 87 76 68 67 73 81 85 88 74 65 67 89 71 80 88 95 107 117 120 122
134 149 125 113 125 138 153 154 155 155 151 153 155 146 138 129 143 130 123 121 124 116 109 100 88 80 76 74 83 93 95 67 76 82 95 74 73 82 95 108 116 123 127
130 124 111 118 136 136 149 142 140 142 144 151 158 154 148 144 146 146 141 135 129 121 113 106 96 86 84 82 87 97 98 69 88 83 88 78 74 81 100 111 121 126 132
129 87 94 112 134 152 143 150 140 140 152 156 152 158 155 164 158 160 163 153 141 125 116 110 104 95 89 90 93 104 92 67 77 99 86 65 66 93 100 113 124 131 133
154 56 85 104 126 136 137 182 201 194 190 185 170 164 164 174 166 157 167 168 150 132 116 110 108 97 89 90 99 110 104 85 72 79 68 0 78 102 106 109 112 115 119
156 55 92 100 109 84 80 133 157 149 176 183 172 167 168 177 171 175 171 161 173 146 124 112 89 77 67 68 71 107 139 89 99 97 49 22 107 121 117 132 134 132 128
139 146 103 47 48 352 267 245 197 145 131 142 148 158 156 163 167 174 192 169 205 191 136 128 344 328 332 355 340 136 136 81 95 107 135 89 92 134 141 143 144 140 142
154 146 117 95 103 56 48 230 137 166 161 131 147 153 162 165 172 173 168 183 198 251 198 182 252 280 279 301 310 328 178 167 89 159 159 70 117 107 156 160 156 151 148
152 161 129 100 136 91 47 29 185 187 172 152 153 168 159 164 154 152 147 165 135 274 283 231 252 263 287 295 291 293 253 292 337 198 180 125 123 107 123 159 181 177 175
178 169 156 123 124 125 200 152 98 183 200 215 206 180 169 165 178 173 173 184 175 226 223 196 222 261 277 290 298 305 289 307 64 166 157 146 176 142 136 144 178 186 194
174 154 149 155 157 164 240 188 156 332 224 202 191 210 223 233 234 236 232 229 202 203 206 190 161 160 280 284 298 260 263 69 230 219 223 198 217 209 207 218 192 191 189
144 149 163 168 159 146 132 127 165 225 252 222 229 234 225 227 228 235 235 236 227 225 222 200 127 136 206 301 264 230 218 134 88 140 171 152 281 237 217 234 229 217 190
156 162 176 159 158 149 146 149 157 162 145 158 215 213 231 237 239 223 223 227 206 213 207 181 142 135 163 201 224 259 239 233 183 139 165 9 317 257 230 230 238 239 228
169 182 190 173 173 167 162 162 163 173 191 182 161 179 188 206 229 234 240 242 237 220 193 110 150 185 177 210 230 257 271 259 245 243 251 281 299 293 254 235 233 227 217
180 183 182 173 176 174 167 151 138 144 132 103 109 109 145 185 207 219 258 262 246 234 208 231 233 230 220 217 234 243 278 286 294 259 226 236 235 282 269 266 241 236 223
174 179 175 181 173 169 166 161 156 142 133 131 129 129 123 134 158 207 197 207 254 261 239 217 225 224 211 196 210 235 246 260 287 280 267 245 227 190 212 317 313 292 284
176 168 171 176 176 178 175 170 161 150 158 149 156 170 167 152 180 205 229 248 211 230 236 243 223 223 217 194 190 256 230 265 269 263 61 309 218 209 156 115 37 6 345
174 177 177 177 179 184 178 175 168 168 156 151 170 194 199 194 166 173 175 186 191 169 174 231 263 198 245 262 237 166 144 161 123 109 96 72 81 149 150 85 79 71 53
173 174 178 178 183 186 180 175 172 175 185 197 204 199 213 190 194 187 199 187 158 152 164 155 196 192 68 314 148 134 131 134 122 114 106 95 93 95 99 95 84 79 79
174 177 178 185 188 193 194 196 189 184 193 201 200 204 196 186 183 203 192 177 171 173 161 174 166 165 104 41 165 132 121 120 143 126 111 104 102 99 90 79 51 36 44
178 177 179 188 192 195 192 193 172 170 174 195 202 199 200 195 191 194 187 188 179 179 165 141 137 143 150 73 62 148 122 181 84 142 127 112 108 94 82 67 57 19 359
188 179 182 186 194 197 196 195 193 205 210 218 211 209 211 200 191 189 189 188 189 182 164 155 145 130 149 132 90 74 84 121 145 127 117 86 73 52 47 69 24 3 315
184 179 182 188 195 201 205 214 220 214 216 217 205 213 209 200 200 190 183 184 186 184 170 161 148 139 133 125 119 123 93 89 89 122 191 306 346 352 346 337 24 348 209
176 181 184 189 195 206 214 223 218 215 217 190 201 209 207 208 204 200 196 190 194 188 175 159 150 145 138 127 112 101 93 126 101 89 90 320 333 329 341 18 24 14 159